Regional Weather Roundup
Issued by NWS

Home | Current Version | Previous Version | Graphics & Text | Print | Product List | Glossary On
Versions: 1 2 3 4 5 6 7 8 9 10 11 12 13 14 15 16 17 18 19 20 21 22 23 24 25 26 27 28 29 30 31 32 33 34 35 36 37 38 39 40 41 42 43 44 45 46 47 48 49 50
000
ASUS43 KDMX 130201
RWRIA

WEATHER ROUNDUP FOR IOWA
NATIONAL WEATHER SERVICE DES MOINES IA
800 PM CST TUE DEC 12 2017

NOTE: "FAIR" INDICATES FEW OR NO CLOUDS BELOW 12,000 FEET WITH NO
SIGNIFICANT WEATHER AND/OR OBSTRUCTIONS TO VISIBILITY.

* - THESE STATIONS ARE NOT NWS STATIONS...THUS NOT UNDER NWS
QUALITY CONTROL.  THEY ALSO DO NOT REPORT WEATHER SUCH
AS PRECIPITATION OR FOG.

IAZ001>003-012>014-020>022-031>034-043>046-130300-
   NORTHWEST IOWA

CITY           SKY/WX    TMP DP  RH WIND       PRES   REMARKS
CARROLL *      CLEAR     28  23  80 S9        29.91F WCI  20
CHEROKEE *     CLEAR     29  25  85 S8        29.85F WCI  21
DENISON *      CLEAR     30  25  80 SW7       29.92F WCI  23
LE MARS *      CLEAR     32  25  74 S8        29.84F WCI  25
ORANGE CITY *  CLEAR     30  28  93 S8        29.81F WCI  23
SHELDON *      CLEAR     30  27  86 S10       29.79F WCI  21
SIOUX CITY     CLEAR     28  22  78 E6        29.88F WCI  22
SPENCER        CLEAR     30  23  75 SW12      29.82F WCI  20
STORM LAKE *   CLEAR     28  23  80 SW14      29.85F WCI  17
$$

IAZ055>058-069>071-079>083-090>094-130300-
   SOUTHWEST IOWA

CITY           SKY/WX    TMP DP  RH WIND       PRES   REMARKS
ATLANTIC *     CLEAR     27  23  86 S6        29.95F WCI  20
AUDUBON *      CLEAR     30  25  80 SW7       29.93F WCI  23
CLARINDA *       N/A     30  23  74 S5        30.00F WCI  25
COUNCIL BLFS * CLEAR     36  28  75 S8        29.94F WCI  29
CRESTON *      CLOUDY    27  21  80 S9        29.98F WCI  17
HARLAN  *      CLEAR     28  25  86 S6        29.97F WCI  22
LAMONI         CLEAR     27  18  69 S8        29.99F WCI  19
RED OAK *      CLEAR     27  21  80 S6        29.97F WCI  20
SHENANDOAH *   CLEAR     32  25  74 SW7       29.98F WCI  26
$$

IAZ047>049-059>061-072>074-084-130300-
   CENTRAL IOWA

CITY           SKY/WX    TMP DP  RH WIND       PRES   REMARKS
AMES           CLOUDY    27  20  75 SW8       29.94F WCI  19
ANKENY *       CLOUDY    30  19  64 SW7       29.97F WCI  23
BOONE *        CLEAR     28  19  69 SW12      29.91F WCI  18
CHARITON *     CLEAR     27  18  69 SW9       29.99F WCI  17
DES MOINES     CLEAR     29  19  66 SW12      29.96F WCI  19
GRINNELL*      CLOUDY    25  12  57 S7        29.98F WCI  17
KNOXVILLE *    CLOUDY    27  14  59 SW8       29.98F WCI  18
MARSHALLTOWN   PTCLDY    24  15  68 S9        29.94F WCI  14
NEWTON *       CLOUDY    23  14  68 S8        29.97F WCI  14
PELLA *        CLEAR     27  14  59 SW7       30.00F WCI  19
$$

IAZ004>006-015-016-023>025-035-036-130300-
   NORTH CENTRAL IOWA

CITY           SKY/WX    TMP DP  RH WIND       PRES   REMARKS
ALGONA *       CLOUDY    28  23  80 S12       29.85F WCI  18
CLARION *      CLOUDY    27  19  74 S10       29.88F WCI  17
ESTHERVILLE    CLEAR     29  24  82 SW13      29.81F WCI  19
FORT DODGE *   CLEAR     29  21  72 SW13      29.89F WCI  19
MASON CITY     CLOUDY    30  21  69 SW14      29.87F WCI  19
FOREST CITY *  CLOUDY    32  23  69 SW10      29.85F WCI  24
WEBSTER CITY * PTCLDY    28  19  69 SW12      29.87F WCI  18
IOWA FALLS *     N/A     27  20  75 S12       29.92F HAZE    WCI  17
$$

IAZ007>011-017>019-026>030-037>042-050>054-066-130300-
   NORTHEAST IOWA

CITY           SKY/WX    TMP DP  RH WIND       PRES   REMARKS
CEDAR RAPIDS   CLOUDY    21   9  59 S7        29.98F WCI  12
CHARLES CITY * PTCLDY    25  16  68 S10       29.89F WCI  15
CLINTON *      CLOUDY    24  13  62 W5        30.02F WCI  18
DECORAH *      CLOUDY    25  14  63 S6G12     29.90S WCI  18
DUBUQUE        CLOUDY    22  12  65 SW7       29.96F WCI  13
MONTICELLO *   CLOUDY    27   7  43 SW7       29.97F WCI  19
OELWEIN *      CLOUDY    27  12  54 S13       29.93F WCI  16
WATERLOO       MOCLDY    26  13  57 S10       29.93F WCI  16
$$

IAZ064-065-067-068-078-130300-
   EAST CENTRAL IOWA

CITY           SKY/WX    TMP DP  RH WIND       PRES   REMARKS
DAVENPORT      CLOUDY    26   5  40 SW10      30.03F WCI  16
IOWA CITY      CLEAR     25   8  48 SW7       30.02F WCI  17
MT. PLEASANT * CLOUDY    22   4  44 S6        30.03F WCI  15
MUSCATINE *    CLOUDY    27   7  43 S6        30.04F WCI  20
QUAD CITIES    CLOUDY    27   6  41 SW9       30.01F WCI  18
$$

IAZ062-063-075>077-085>089-095>099-130300-
   SOUTHEAST IOWA

CITY           SKY/WX    TMP DP  RH WIND       PRES   REMARKS
BURLINGTON     MOCLDY    24   7  48 SW5       30.04F WCI  18
FAIRFIELD *    CLOUDY    25   3  39 S6        30.01F WCI  18
FORT MADISON * CLOUDY    27   3  36 SW6       30.05F WCI  20
KEOKUK *       CLOUDY    27   5  39 SW6       30.05F WCI  20
OSKALOOSA *      N/A     21   8  56 S6        30.01F WCI  14
OTTUMWA        CLOUDY    24   9  52 SW8       30.01F WCI  15
WASHINGTON *   CLOUDY    23   5  46 S7        30.03F WCI  15
$$

ABBREVIATIONS USED IN REMARKS
   TC - TEMPERATURES IN CELSIUS
  WCI - WIND CHILL INDEX
   HX - HEAT INDEX
  VSB - VISIBILITY
$$




USA.gov is the U.S. government's official web portal to all federal, state and local government web resources and services.